Terminal Aerodrome Forecast
Issued by NWS La Crosse, WI

Home | Current Version | Previous Version | Text Only | Print | Product List | Glossary On
Versions: 1 2 3 4 5 6 7 8 9 10 11 12 13 14 15 16 17 18 19 20 21 22 23 24 25 26 27 28 29 30 31 32 33 34 35 36 37 38 39 40 41 42 43 44 45 46
000
FTUS43 KARX 030520
TAFRST
TAF
KRST 030520Z 0306/0406 21005KT P6SM SCT250
     FM031400 18010KT P6SM VCSH BKN060
     FM031900 18014G22KT P6SM VCSH BKN040
     FM040000 18013KT P6SM BKN040
     FM040300 17012KT P6SM VCTS BKN035CB WS020/20045KT=

USA.gov is the U.S. government's official web portal to all federal, state and local government web resources and services.